Torna al catalogo

STARLINK-11685

AttivoComunicazioniVLEO
NORAD 63552·PAYLOAD·🇺🇸 United States

Lanciato Apr 13, 2025 da Cape Canaveral Space Force Station

Loading…

Prossimi Passaggi (prossime 24 ore)

TLE

AggiornatoSource: CelesTrak SupGP

Epoca: Sep 14, 2026, 22:28 UTC

1 63552C 25075E   26257.93659722 -.00001777  00000+0 -13805-4 0  2576
2 63552  43.0005  92.7983 0001677 266.4915 159.1678 15.70832261    10

Traccia STARLINK-11685 in tempo reale con AllMySat

Download on the App Store